Wetterdaten: Mittwoch, 23.09.2015
Datum Zeit Auen-Temp. Temp gefhlt Luftfeuchte Luftdruck Regen Wind Richtung Richtung Taupunkt Windben
23.09.2015 00:00 10,1 C 10,0 C 89 % 1007,1 hPa 0,0 mm 0,0 km/h (0 Bft) SO 135 8,4 C 0,0 km/h (0 Bft)
23.09.2015 00:05 10,1 C 10,0 C 89 % 1007,1 hPa 0,0 mm 0,0 km/h (0 Bft) S-SO 157 8,4 C 0,0 km/h (0 Bft)
23.09.2015 00:10 10,1 C 10,0 C 89 % 1007,1 hPa 0,0 mm 0,0 km/h (0 Bft) S-SO 157 8,4 C 0,0 km/h (0 Bft)
23.09.2015 00:15 10,1 C 10,0 C 89 % 1006,8 hPa 0,0 mm 0,0 km/h (0 Bft) S 180 8,4 C 0,0 km/h (0 Bft)
23.09.2015 00:20 10,1 C 10,0 C 89 % 1006,8 hPa 0,0 mm 0,8 km/h (0 Bft) W 270 8,4 C 0,0 km/h (0 Bft)
23.09.2015 00:25 10,1 C 10,0 C 89 % 1006,8 hPa 0,0 mm 0,5 km/h (0 Bft) W-SW 247 8,4 C 0,0 km/h (0 Bft)
23.09.2015 00:30 10,1 C 10,1 C 86 % 1006,8 hPa 0,0 mm 0,0 km/h (0 Bft) O-NO 67 7,9 C 0,0 km/h (0 Bft)
23.09.2015 00:35 10,1 C 10,0 C 89 % 1006,9 hPa 0,0 mm 0,0 km/h (0 Bft) O-SO 112 8,4 C 0,0 km/h (0 Bft)
23.09.2015 00:40 10,1 C 10,1 C 86 % 1006,9 hPa 0,0 mm 0,0 km/h (0 Bft) O 90 7,9 C 0,0 km/h (0 Bft)
23.09.2015 00:45 10,1 C 10,1 C 86 % 1006,9 hPa 0,0 mm 0,0 km/h (0 Bft) O-SO 112 7,9 C 0,0 km/h (0 Bft)
23.09.2015 00:50 10,2 C 10,1 C 89 % 1006,9 hPa 0,0 mm 0,5 km/h (0 Bft) S 180 8,5 C 0,0 km/h (0 Bft)
23.09.2015 00:55 10,2 C 10,1 C 89 % 1007,1 hPa 0,0 mm 0,5 km/h (0 Bft) S 180 8,5 C 0,0 km/h (0 Bft)
23.09.2015 01:00 10,2 C 10,1 C 89 % 1007,1 hPa 0,7 mm 0,5 km/h (0 Bft) S-SW 202 8,5 C 0,0 km/h (0 Bft)
23.09.2015 01:05 10,2 C 10,1 C 89 % 1007,1 hPa 0,0 mm 0,5 km/h (0 Bft) SW 225 8,5 C 0,0 km/h (0 Bft)
23.09.2015 01:10 10,2 C 10,1 C 89 % 1007,1 hPa 0,0 mm 0,0 km/h (0 Bft) W 270 8,5 C 0,0 km/h (0 Bft)
23.09.2015 01:15 10,1 C 10,0 C 89 % 1006,8 hPa 0,0 mm 0,0 km/h (0 Bft) W-SW 247 8,4 C 0,0 km/h (0 Bft)
23.09.2015 01:20 10,1 C 10,0 C 89 % 1006,8 hPa 0,0 mm 0,0 km/h (0 Bft) W-SW 247 8,4 C 0,0 km/h (0 Bft)
23.09.2015 01:25 10,1 C 10,0 C 89 % 1006,8 hPa 0,0 mm 0,0 km/h (0 Bft) W-SW 247 8,4 C 0,0 km/h (0 Bft)
23.09.2015 01:30 10,1 C 10,0 C 90 % 1006,8 hPa 0,7 mm 0,0 km/h (0 Bft) W 270 8,5 C 0,0 km/h (0 Bft)
23.09.2015 01:34 10,1 C 10,0 C 90 % 1007,0 hPa 0,0 mm 0,0 km/h (0 Bft) W-SW 247 8,5 C 0,0 km/h (0 Bft)
23.09.2015 01:35 10,1 C 10,0 C 90 % 1007,0 hPa 0,0 mm 0,0 km/h (0 Bft) W-SW 247 8,5 C 0,0 km/h (0 Bft)
23.09.2015 01:40 10,1 C 10,0 C 90 % 1007,0 hPa 0,7 mm 0,0 km/h (0 Bft) W-SW 247 8,5 C 0,0 km/h (0 Bft)
23.09.2015 01:45 10,1 C 10,0 C 90 % 1007,0 hPa 0,0 mm 0,5 km/h (0 Bft) W 270 8,5 C 4,1 km/h (1 Bft)
23.09.2015 01:50 10,1 C 10,0 C 90 % 1007,0 hPa 0,0 mm 0,5 km/h (0 Bft) O-SO 112 8,5 C 6,0 km/h (2 Bft)
23.09.2015 01:55 10,1 C 10,0 C 90 % 1007,6 hPa 0,7 mm 3,4 km/h (1 Bft) SW 225 8,5 C 15,5 km/h (3 Bft)
23.09.2015 02:00 9,5 C 9,2 C 89 % 1007,6 hPa 0,7 mm 9,8 km/h (2 Bft) W 270 7,8 C 27,7 km/h (4 Bft)
23.09.2015 02:05 9,2 C 8,8 C 89 % 1007,6 hPa 0,0 mm 11,4 km/h (2 Bft) W-SW 247 7,5 C 12,4 km/h (3 Bft)
23.09.2015 02:10 9,0 C 8,7 C 89 % 1007,6 hPa 0,7 mm 8,5 km/h (2 Bft) SW 225 7,3 C 8,3 km/h (2 Bft)
23.09.2015 02:15 9,0 C 8,7 C 89 % 1008,1 hPa 0,0 mm 8,0 km/h (2 Bft) W-NW 292 7,3 C 7,8 km/h (2 Bft)
23.09.2015 02:20 8,9 C 8,6 C 89 % 1008,1 hPa 0,0 mm 7,3 km/h (2 Bft) S-SW 202 7,2 C 10,4 km/h (2 Bft)
23.09.2015 02:25 8,8 C 8,6 C 89 % 1008,1 hPa 0,0 mm 6,7 km/h (2 Bft) W-SW 247 7,1 C 14,5 km/h (3 Bft)
23.09.2015 02:30 8,7 C 8,5 C 89 % 1008,1 hPa 0,7 mm 6,2 km/h (2 Bft) W 270 7,0 C 14,2 km/h (3 Bft)
23.09.2015 02:35 8,7 C 8,5 C 89 % 1008,1 hPa 0,0 mm 6,5 km/h (2 Bft) W-SW 247 7,0 C 7,5 km/h (2 Bft)
23.09.2015 02:40 8,5 C 8,3 C 89 % 1008,1 hPa 0,7 mm 7,3 km/h (2 Bft) W 270 6,8 C 5,2 km/h (1 Bft)
23.09.2015 02:45 8,5 C 8,4 C 89 % 1008,1 hPa 0,0 mm 5,7 km/h (1 Bft) W 270 6,8 C 6,5 km/h (2 Bft)
23.09.2015 02:50 8,4 C 8,3 C 89 % 1008,1 hPa 0,0 mm 5,2 km/h (1 Bft) W-SW 247 6,7 C 5,2 km/h (1 Bft)
23.09.2015 02:55 8,4 C 8,2 C 89 % 1008,1 hPa 0,7 mm 5,4 km/h (1 Bft) NW 315 6,7 C 8,8 km/h (2 Bft)
23.09.2015 03:00 8,3 C 8,1 C 89 % 1008,1 hPa 0,0 mm 7,0 km/h (2 Bft) NW 315 6,6 C 12,4 km/h (3 Bft)
23.09.2015 03:05 8,3 C 8,1 C 89 % 1008,1 hPa 0,7 mm 6,2 km/h (2 Bft) W 270 6,6 C 4,4 km/h (1 Bft)
23.09.2015 03:10 8,3 C 8,2 C 90 % 1008,1 hPa 0,7 mm 3,9 km/h (1 Bft) W-NW 292 6,8 C 6,0 km/h (2 Bft)
23.09.2015 03:15 8,3 C 8,2 C 90 % 1008,4 hPa 0,0 mm 4,7 km/h (1 Bft) W 270 6,8 C 6,0 km/h (2 Bft)
23.09.2015 03:20 8,0 C 7,6 C 90 % 1008,4 hPa 0,7 mm 9,8 km/h (2 Bft) NW 315 6,5 C 39,6 km/h (6 Bft)
23.09.2015 03:25 7,9 C 7,4 C 89 % 1008,4 hPa 0,0 mm 11,4 km/h (2 Bft) W-NW 292 6,2 C 28,7 km/h (4 Bft)
23.09.2015 03:30 7,7 C 7,2 C 89 % 1008,4 hPa 0,0 mm 9,8 km/h (2 Bft) NW 315 6,0 C 10,6 km/h (2 Bft)
23.09.2015 03:35 7,6 C 7,2 C 89 % 1008,8 hPa 0,0 mm 8,8 km/h (2 Bft) W-NW 292 5,9 C 11,1 km/h (2 Bft)
23.09.2015 03:40 7,5 C 7,3 C 89 % 1008,8 hPa 0,7 mm 6,0 km/h (2 Bft) W 270 5,8 C 9,8 km/h (2 Bft)
23.09.2015 03:45 7,5 C 7,3 C 89 % 1008,8 hPa 0,0 mm 4,7 km/h (1 Bft) S-SW 202 5,8 C 8,5 km/h (2 Bft)
23.09.2015 03:50 7,4 C 7,2 C 89 % 1008,8 hPa 0,0 mm 3,9 km/h (1 Bft) W 270 5,7 C 6,2 km/h (2 Bft)
23.09.2015 03:55 7,3 C 7,1 C 89 % 1009,0 hPa 0,0 mm 5,7 km/h (1 Bft) SW 225 5,6 C 13,5 km/h (3 Bft)
23.09.2015 04:00 7,2 C 6,9 C 89 % 1009,0 hPa 0,7 mm 6,7 km/h (2 Bft) W-SW 247 5,5 C 3,6 km/h (1 Bft)
23.09.2015 04:05 7,1 C 6,9 C 89 % 1009,0 hPa 0,0 mm 5,4 km/h (1 Bft) SW 225 5,4 C 3,1 km/h (1 Bft)
23.09.2015 04:10 6,9 C 6,8 C 89 % 1009,0 hPa 0,0 mm 4,9 km/h (1 Bft) W-SW 247 5,2 C 3,9 km/h (1 Bft)
23.09.2015 04:15 6,8 C 6,7 C 89 % 1008,9 hPa 0,7 mm 3,6 km/h (1 Bft) S-SW 202 5,1 C 0,0 km/h (0 Bft)
23.09.2015 04:20 6,7 C 6,6 C 89 % 1008,9 hPa 0,0 mm 3,1 km/h (1 Bft) W-SW 247 5,0 C 6,0 km/h (2 Bft)
23.09.2015 04:25 6,6 C 6,4 C 89 % 1008,9 hPa 0,0 mm 3,6 km/h (1 Bft) SW 225 4,9 C 6,7 km/h (2 Bft)
23.09.2015 04:30 6,5 C 6,4 C 89 % 1008,9 hPa 0,0 mm 3,6 km/h (1 Bft) W-SW 247 4,8 C 7,0 km/h (2 Bft)
23.09.2015 04:35 6,4 C 6,3 C 89 % 1009,1 hPa 0,7 mm 2,8 km/h (1 Bft) S 180 4,7 C 7,3 km/h (2 Bft)
23.09.2015 04:40 6,4 C 6,2 C 89 % 1009,1 hPa 0,0 mm 2,3 km/h (1 Bft) S-SW 202 4,7 C 2,8 km/h (1 Bft)
23.09.2015 04:45 6,3 C 6,1 C 89 % 1009,1 hPa 0,0 mm 2,1 km/h (1 Bft) S 180 4,6 C 0,0 km/h (0 Bft)
23.09.2015 04:50 6,3 C 6,1 C 89 % 1009,1 hPa 0,0 mm 1,0 km/h (0 Bft) SW 225 4,6 C 2,6 km/h (1 Bft)
23.09.2015 04:55 6,3 C 6,2 C 89 % 1009,0 hPa 0,7 mm 0,5 km/h (0 Bft) SW 225 4,6 C 0,0 km/h (0 Bft)
23.09.2015 05:00 6,3 C 6,1 C 89 % 1009,0 hPa 0,0 mm 0,8 km/h (0 Bft) S-SO 157 4,6 C 0,0 km/h (0 Bft)
23.09.2015 05:05 6,3 C 6,2 C 89 % 1009,0 hPa 0,0 mm 0,8 km/h (0 Bft) S-SO 157 4,6 C 0,0 km/h (0 Bft)
23.09.2015 05:10 6,3 C 6,1 C 89 % 1009,0 hPa 0,0 mm 0,0 km/h (0 Bft) S-SO 157 4,6 C 0,0 km/h (0 Bft)
23.09.2015 05:15 6,3 C 6,1 C 89 % 1009,1 hPa 0,0 mm 0,0 km/h (0 Bft) W-SW 247 4,6 C 0,0 km/h (0 Bft)
23.09.2015 05:20 6,2 C 6,1 C 89 % 1009,1 hPa 0,7 mm 1,0 km/h (0 Bft) SW 225 4,5 C 4,7 km/h (1 Bft)
23.09.2015 05:25 6,3 C 6,1 C 89 % 1009,1 hPa 0,0 mm 0,8 km/h (0 Bft) W-SW 247 4,6 C 0,0 km/h (0 Bft)
23.09.2015 05:30 6,2 C 6,1 C 89 % 1009,1 hPa 0,0 mm 0,8 km/h (0 Bft) S 180 4,5 C 0,0 km/h (0 Bft)
23.09.2015 05:35 6,2 C 6,1 C 89 % 1009,1 hPa 0,0 mm 1,3 km/h (1 Bft) S 180 4,5 C 3,9 km/h (1 Bft)
23.09.2015 05:40 6,2 C 6,1 C 89 % 1009,1 hPa 0,7 mm 2,1 km/h (1 Bft) S 180 4,5 C 0,0 km/h (0 Bft)
23.09.2015 05:45 6,2 C 6,1 C 89 % 1009,1 hPa 0,0 mm 1,8 km/h (1 Bft) SW 225 4,5 C 2,8 km/h (1 Bft)
23.09.2015 05:50 6,2 C 6,1 C 90 % 1009,1 hPa 0,0 mm 1,3 km/h (1 Bft) S 180 4,7 C 4,9 km/h (1 Bft)
23.09.2015 05:55 6,2 C 6,1 C 90 % 1009,2 hPa 0,0 mm 2,1 km/h (1 Bft) SW 225 4,7 C 7,5 km/h (2 Bft)
23.09.2015 06:00 6,2 C 6,1 C 90 % 1009,2 hPa 0,0 mm 3,1 km/h (1 Bft) W-SW 247 4,7 C 2,6 km/h (1 Bft)
23.09.2015 06:05 6,2 C 6,1 C 90 % 1009,2 hPa 0,0 mm 4,1 km/h (1 Bft) SW 225 4,7 C 2,6 km/h (1 Bft)
23.09.2015 06:10 6,2 C 6,1 C 90 % 1009,2 hPa 0,0 mm 2,1 km/h (1 Bft) W-SW 247 4,7 C 0,0 km/h (0 Bft)
23.09.2015 06:15 6,2 C 6,1 C 90 % 1009,1 hPa 0,0 mm 0,5 km/h (0 Bft) S 180 4,7 C 0,0 km/h (0 Bft)
23.09.2015 06:20 6,2 C 6,1 C 90 % 1009,1 hPa 0,0 mm 0,5 km/h (0 Bft) W-SW 247 4,7 C 0,0 km/h (0 Bft)
23.09.2015 06:25 6,2 C 6,1 C 90 % 1009,1 hPa 0,0 mm 0,5 km/h (0 Bft) S 180 4,7 C 0,0 km/h (0 Bft)
23.09.2015 06:30 6,1 C 6,0 C 90 % 1009,1 hPa 0,0 mm 0,0 km/h (0 Bft) S-SO 157 4,6 C 0,0 km/h (0 Bft)
23.09.2015 06:35 6,1 C 6,0 C 90 % 1009,2 hPa 0,0 mm 0,0 km/h (0 Bft) S-SO 157 4,6 C 0,0 km/h (0 Bft)
23.09.2015 06:40 6,1 C 6,0 C 90 % 1009,2 hPa 0,7 mm 0,0 km/h (0 Bft) S-SO 157 4,6 C 0,0 km/h (0 Bft)
23.09.2015 06:45 6,1 C 6,0 C 90 % 1009,2 hPa 0,0 mm 0,0 km/h (0 Bft) S-SO 157 4,6 C 0,0 km/h (0 Bft)
23.09.2015 06:50 6,1 C 6,0 C 90 % 1009,2 hPa 0,0 mm 0,0 km/h (0 Bft) S-SO 157 4,6 C 0,0 km/h (0 Bft)
23.09.2015 06:55 6,1 C 6,0 C 90 % 1009,1 hPa 0,0 mm 0,0 km/h (0 Bft) S-SO 157 4,6 C 0,0 km/h (0 Bft)
23.09.2015 07:00 6,0 C 5,9 C 90 % 1009,1 hPa 0,0 mm 0,0 km/h (0 Bft) W-SW 247 4,5 C 0,0 km/h (0 Bft)
23.09.2015 07:05 6,1 C 6,0 C 90 % 1009,1 hPa 0,0 mm 0,0 km/h (0 Bft) S-SW 202 4,6 C 0,0 km/h (0 Bft)
23.09.2015 07:10 6,0 C 5,9 C 90 % 1009,1 hPa 0,0 mm 0,0 km/h (0 Bft) S-SO 157 4,5 C 0,0 km/h (0 Bft)
23.09.2015 07:15 6,0 C 5,9 C 90 % 1009,4 hPa 0,0 mm 0,0 km/h (0 Bft) W 270 4,5 C 0,0 km/h (0 Bft)
23.09.2015 07:20 6,0 C 5,9 C 90 % 1009,4 hPa 0,0 mm 0,3 km/h (0 Bft) S 180 4,5 C 0,0 km/h (0 Bft)
23.09.2015 07:25 6,0 C 5,9 C 90 % 1009,4 hPa 0,0 mm 0,3 km/h (0 Bft) SO 135 4,5 C 0,0 km/h (0 Bft)
23.09.2015 07:30 6,0 C 5,9 C 90 % 1009,4 hPa 0,7 mm 0,3 km/h (0 Bft) S-SO 157 4,5 C 0,0 km/h (0 Bft)
23.09.2015 07:35 6,0 C 5,9 C 90 % 1010,1 hPa 0,0 mm 0,8 km/h (0 Bft) W-SW 247 4,5 C 2,6 km/h (1 Bft)
23.09.2015 07:40 6,0 C 5,9 C 90 % 1010,1 hPa 0,0 mm 0,8 km/h (0 Bft) W-SW 247 4,5 C 2,6 km/h (1 Bft)
23.09.2015 07:45 6,1 C 6,0 C 90 % 1010,1 hPa 0,0 mm 1,0 km/h (0 Bft) W-SW 247 4,6 C 3,1 km/h (1 Bft)
23.09.2015 07:50 6,1 C 6,0 C 90 % 1010,1 hPa 0,0 mm 0,5 km/h (0 Bft) N-NO 22 4,6 C 0,0 km/h (0 Bft)
23.09.2015 07:55 6,1 C 6,0 C 90 % 1010,3 hPa 0,0 mm 0,5 km/h (0 Bft) O-SO 112 4,6 C 0,0 km/h (0 Bft)
23.09.2015 08:00 6,1 C 6,1 C 87 % 1010,3 hPa 0,0 mm 0,0 km/h (0 Bft) O-SO 112 4,1 C 0,0 km/h (0 Bft)
23.09.2015 08:05 6,1 C 6,1 C 87 % 1010,3 hPa 0,0 mm 0,0 km/h (0 Bft) SO 135 4,1 C 0,0 km/h (0 Bft)
23.09.2015 08:10 6,1 C 6,1 C 87 % 1010,3 hPa 0,0 mm 0,0 km/h (0 Bft) SO 135 4,1 C 0,0 km/h (0 Bft)
23.09.2015 08:15 6,1 C 6,1 C 87 % 1010,1 hPa 0,0 mm 0,0 km/h (0 Bft) O-SO 112 4,1 C 0,0 km/h (0 Bft)
23.09.2015 08:20 6,2 C 6,2 C 87 % 1010,1 hPa 0,0 mm 0,0 km/h (0 Bft) SO 135 4,2 C 0,0 km/h (0 Bft)
23.09.2015 08:25 6,2 C 6,2 C 87 % 1010,1 hPa 0,0 mm 0,0 km/h (0 Bft) O 90 4,2 C 0,0 km/h (0 Bft)
23.09.2015 08:30 6,2 C 6,3 C 87 % 1010,1 hPa 0,0 mm 0,3 km/h (0 Bft) W-SW 247 4,2 C 0,0 km/h (0 Bft)
23.09.2015 08:35 6,2 C 6,3 C 87 % 1010,4 hPa 0,0 mm 0,3 km/h (0 Bft) W-SW 247 4,2 C 0,0 km/h (0 Bft)
23.09.2015 08:40 6,3 C 6,3 C 87 % 1010,4 hPa 0,0 mm 1,3 km/h (1 Bft) W 270 4,3 C 9,3 km/h (2 Bft)
23.09.2015 08:45 6,3 C 6,3 C 87 % 1010,4 hPa 0,0 mm 1,6 km/h (1 Bft) O-SO 112 4,3 C 2,6 km/h (1 Bft)
23.09.2015 08:50 6,3 C 6,4 C 87 % 1010,4 hPa 0,0 mm 0,5 km/h (0 Bft) S-SO 157 4,3 C 0,0 km/h (0 Bft)
23.09.2015 08:55 6,4 C 6,5 C 87 % 1010,8 hPa 0,0 mm 0,0 km/h (0 Bft) SO 135 4,4 C 0,0 km/h (0 Bft)
23.09.2015 09:00 6,5 C 6,6 C 87 % 1010,8 hPa 0,0 mm 0,0 km/h (0 Bft) O-SO 112 4,5 C 0,0 km/h (0 Bft)
23.09.2015 09:05 6,5 C 6,7 C 87 % 1010,8 hPa 0,0 mm 0,0 km/h (0 Bft) SO 135 4,5 C 0,0 km/h (0 Bft)
23.09.2015 09:10 6,7 C 6,9 C 87 % 1010,8 hPa 0,0 mm 0,0 km/h (0 Bft) O-SO 112 4,7 C 0,0 km/h (0 Bft)
23.09.2015 09:15 6,7 C 7,0 C 87 % 1010,8 hPa 0,0 mm 0,0 km/h (0 Bft) SO 135 4,7 C 0,0 km/h (0 Bft)
23.09.2015 09:20 6,7 C 7,0 C 87 % 1010,8 hPa 0,0 mm 0,0 km/h (0 Bft) SO 135 4,7 C 0,0 km/h (0 Bft)
23.09.2015 09:25 6,8 C 7,1 C 87 % 1010,8 hPa 0,0 mm 0,0 km/h (0 Bft) O-SO 112 4,8 C 0,0 km/h (0 Bft)
23.09.2015 09:30 6,9 C 7,2 C 87 % 1010,8 hPa 0,0 mm 0,0 km/h (0 Bft) W-NW 292 4,9 C 0,0 km/h (0 Bft)
23.09.2015 09:35 7,0 C 7,3 C 87 % 1011,2 hPa 0,0 mm 0,0 km/h (0 Bft) S 180 5,0 C 0,0 km/h (0 Bft)
23.09.2015 09:40 7,0 C 7,2 C 87 % 1011,2 hPa 0,0 mm 0,0 km/h (0 Bft) S 180 5,0 C 0,0 km/h (0 Bft)
23.09.2015 09:45 7,0 C 7,3 C 87 % 1011,2 hPa 0,0 mm 0,3 km/h (0 Bft) SW 225 5,0 C 0,0 km/h (0 Bft)
23.09.2015 09:50 7,2 C 7,4 C 87 % 1011,2 hPa 0,0 mm 0,5 km/h (0 Bft) SW 225 5,2 C 0,0 km/h (0 Bft)
23.09.2015 09:55 7,3 C 7,6 C 87 % 1011,3 hPa 0,0 mm 0,5 km/h (0 Bft) SW 225 5,3 C 0,0 km/h (0 Bft)
23.09.2015 10:00 7,4 C 7,8 C 87 % 1011,3 hPa 0,0 mm 0,0 km/h (0 Bft) SW 225 5,4 C 0,0 km/h (0 Bft)
23.09.2015 10:05 7,5 C 7,9 C 87 % 1011,3 hPa 0,0 mm 0,0 km/h (0 Bft) SW 225 5,5 C 0,0 km/h (0 Bft)
23.09.2015 10:10 7,5 C 8,1 C 87 % 1011,3 hPa 0,7 mm 0,0 km/h (0 Bft) W-SW 247 5,5 C 0,0 km/h (0 Bft)
23.09.2015 10:15 7,6 C 8,1 C 87 % 1011,2 hPa 0,0 mm 0,0 km/h (0 Bft) S-SW 202 5,6 C 0,0 km/h (0 Bft)
23.09.2015 10:20 7,6 C 8,1 C 86 % 1011,2 hPa 0,0 mm 0,0 km/h (0 Bft) S 180 5,4 C 0,0 km/h (0 Bft)
23.09.2015 10:25 7,6 C 8,0 C 86 % 1011,2 hPa 0,0 mm 0,0 km/h (0 Bft) O-SO 112 5,4 C 0,0 km/h (0 Bft)
23.09.2015 10:30 7,7 C 8,0 C 86 % 1011,2 hPa 0,0 mm 0,0 km/h (0 Bft) O-SO 112 5,5 C 0,0 km/h (0 Bft)
23.09.2015 10:35 7,7 C 8,0 C 86 % 1011,6 hPa 0,0 mm 0,0 km/h (0 Bft) S-SO 157 5,5 C 0,0 km/h (0 Bft)
23.09.2015 10:40 7,7 C 8,0 C 86 % 1011,6 hPa 0,0 mm 0,3 km/h (0 Bft) S 180 5,5 C 0,0 km/h (0 Bft)
23.09.2015 10:45 7,7 C 7,9 C 86 % 1011,6 hPa 0,0 mm 0,3 km/h (0 Bft) S 180 5,5 C 0,0 km/h (0 Bft)
23.09.2015 10:50 7,7 C 8,1 C 86 % 1011,6 hPa 0,0 mm 0,0 km/h (0 Bft) W-SW 247 5,5 C 0,0 km/h (0 Bft)
23.09.2015 10:55 7,7 C 8,0 C 86 % 1011,8 hPa 0,0 mm 0,0 km/h (0 Bft) S-SO 157 5,5 C 0,0 km/h (0 Bft)
23.09.2015 11:00 7,7 C 8,0 C 86 % 1011,8 hPa 0,0 mm 0,0 km/h (0 Bft) SW 225 5,5 C 0,0 km/h (0 Bft)
23.09.2015 11:05 7,7 C 8,0 C 86 % 1011,8 hPa 0,0 mm 0,3 km/h (0 Bft) S-SO 157 5,5 C 0,0 km/h (0 Bft)
23.09.2015 11:10 7,8 C 8,0 C 86 % 1011,8 hPa 0,0 mm 0,8 km/h (0 Bft) S-SW 202 5,6 C 0,0 km/h (0 Bft)
23.09.2015 11:15 7,8 C 7,9 C 86 % 1011,9 hPa 0,0 mm 1,8 km/h (1 Bft) SW 225 5,6 C 8,0 km/h (2 Bft)
23.09.2015 11:20 7,8 C 8,0 C 86 % 1011,9 hPa 0,0 mm 2,8 km/h (1 Bft) W-SW 247 5,6 C 0,0 km/h (0 Bft)
23.09.2015 11:25 7,9 C 8,0 C 86 % 1011,9 hPa 0,0 mm 2,1 km/h (1 Bft) S 180 5,7 C 0,0 km/h (0 Bft)
23.09.2015 11:30 8,0 C 8,3 C 86 % 1011,9 hPa 0,0 mm 0,3 km/h (0 Bft) S-SW 202 5,8 C 0,0 km/h (0 Bft)
23.09.2015 11:35 8,2 C 8,6 C 86 % 1012,1 hPa 0,0 mm 0,0 km/h (0 Bft) S 180 6,0 C 0,0 km/h (0 Bft)
23.09.2015 11:40 8,4 C 9,0 C 86 % 1012,1 hPa 0,0 mm 0,5 km/h (0 Bft) W 270 6,2 C 0,0 km/h (0 Bft)
23.09.2015 11:45 8,5 C 9,2 C 86 % 1012,1 hPa 0,0 mm 0,5 km/h (0 Bft) SW 225 6,3 C 0,0 km/h (0 Bft)
23.09.2015 11:50 8,8 C 9,5 C 85 % 1012,1 hPa 0,0 mm 0,5 km/h (0 Bft) W-SW 247 6,4 C 0,0 km/h (0 Bft)
23.09.2015 11:55 8,9 C 9,6 C 85 % 1012,3 hPa 0,0 mm 0,5 km/h (0 Bft) W-SW 247 6,5 C 3,4 km/h (1 Bft)
23.09.2015 12:00 8,9 C 9,6 C 85 % 1012,3 hPa 0,0 mm 1,0 km/h (0 Bft) W 270 6,5 C 0,0 km/h (0 Bft)
23.09.2015 12:05 8,9 C 9,7 C 85 % 1012,3 hPa 0,0 mm 1,8 km/h (1 Bft) W-SW 247 6,5 C 2,6 km/h (1 Bft)
23.09.2015 12:10 8,9 C 9,8 C 84 % 1012,3 hPa 0,0 mm 2,1 km/h (1 Bft) W-NW 292 6,3 C 3,6 km/h (1 Bft)
23.09.2015 12:15 8,9 C 10,0 C 84 % 1012,4 hPa 0,0 mm 3,1 km/h (1 Bft) W-SW 247 6,3 C 4,1 km/h (1 Bft)
23.09.2015 12:20 9,0 C 10,3 C 83 % 1012,4 hPa 0,0 mm 3,1 km/h (1 Bft) W-NW 292 6,3 C 0,0 km/h (0 Bft)
23.09.2015 12:25 9,1 C 10,7 C 83 % 1012,4 hPa 0,0 mm 2,6 km/h (1 Bft) S-SO 157 6,4 C 9,8 km/h (2 Bft)
23.09.2015 12:30 9,2 C 10,9 C 83 % 1012,4 hPa 0,0 mm 2,3 km/h (1 Bft) W 270 6,5 C 0,0 km/h (0 Bft)
23.09.2015 12:35 9,3 C 11,2 C 82 % 1012,6 hPa 0,0 mm 2,1 km/h (1 Bft) W 270 6,4 C 3,1 km/h (1 Bft)
23.09.2015 12:40 9,4 C 11,5 C 82 % 1012,6 hPa 0,0 mm 2,3 km/h (1 Bft) W-NW 292 6,5 C 7,5 km/h (2 Bft)
23.09.2015 12:45 9,3 C 11,5 C 82 % 1012,6 hPa 0,0 mm 3,9 km/h (1 Bft) SW 225 6,4 C 4,1 km/h (1 Bft)
23.09.2015 12:50 9,4 C 11,5 C 82 % 1012,6 hPa 0,0 mm 3,9 km/h (1 Bft) NW 315 6,5 C 0,0 km/h (0 Bft)
23.09.2015 12:55 9,5 C 11,6 C 82 % 1012,7 hPa 0,0 mm 2,3 km/h (1 Bft) W-NW 292 6,6 C 0,0 km/h (0 Bft)
23.09.2015 13:00 9,6 C 11,8 C 81 % 1012,7 hPa 0,0 mm 2,1 km/h (1 Bft) W 270 6,5 C 0,0 km/h (0 Bft)
23.09.2015 13:05 9,7 C 11,9 C 81 % 1012,7 hPa 0,0 mm 2,3 km/h (1 Bft) W-SW 247 6,6 C 6,5 km/h (2 Bft)
23.09.2015 13:10 9,6 C 11,8 C 81 % 1012,7 hPa 0,0 mm 3,4 km/h (1 Bft) NW 315 6,5 C 5,2 km/h (1 Bft)
23.09.2015 13:15 9,6 C 11,8 C 81 % 1012,9 hPa 0,0 mm 4,7 km/h (1 Bft) NW 315 6,5 C 8,5 km/h (2 Bft)
23.09.2015 13:20 9,6 C 11,8 C 80 % 1012,9 hPa 0,0 mm 4,9 km/h (1 Bft) W 270 6,3 C 9,6 km/h (2 Bft)
23.09.2015 13:25 9,7 C 11,9 C 80 % 1012,9 hPa 0,0 mm 4,4 km/h (1 Bft) W-SW 247 6,4 C 5,4 km/h (1 Bft)
23.09.2015 13:30 9,8 C 12,2 C 80 % 1012,9 hPa 0,0 mm 5,2 km/h (1 Bft) W-SW 247 6,5 C 2,6 km/h (1 Bft)
23.09.2015 13:35 9,6 C 12,0 C 78 % 1013,1 hPa 0,0 mm 5,7 km/h (1 Bft) NW 315 6,0 C 6,7 km/h (2 Bft)
23.09.2015 13:36 9,6 C 12,0 C 78 % 1013,1 hPa 0,0 mm 5,7 km/h (1 Bft) NW 315 6,0 C 6,7 km/h (2 Bft)
23.09.2015 13:40 9,6 C 12,0 C 78 % 1013,1 hPa 0,0 mm 5,7 km/h (1 Bft) NW 315 6,0 C 6,7 km/h (2 Bft)
23.09.2015 13:45 9,6 C 11,9 C 78 % 1013,1 hPa 0,0 mm 6,0 km/h (2 Bft) NW 315 6,0 C 9,8 km/h (2 Bft)
23.09.2015 13:50 9,6 C 11,8 C 78 % 1013,1 hPa 0,0 mm 5,2 km/h (1 Bft) SW 225 6,0 C 7,3 km/h (2 Bft)
23.09.2015 13:55 9,7 C 11,8 C 78 % 1013,2 hPa 0,0 mm 4,9 km/h (1 Bft) W 270 6,1 C 10,9 km/h (2 Bft)
23.09.2015 14:00 10,1 C 12,6 C 77 % 1013,2 hPa 0,0 mm 4,4 km/h (1 Bft) W 270 6,3 C 0,0 km/h (0 Bft)
23.09.2015 14:05 10,2 C 13,1 C 77 % 1013,2 hPa 0,0 mm 4,4 km/h (1 Bft) NW 315 6,4 C 6,5 km/h (2 Bft)
23.09.2015 14:10 10,2 C 13,1 C 77 % 1013,2 hPa 0,0 mm 3,1 km/h (1 Bft) W-NW 292 6,4 C 7,0 km/h (2 Bft)
23.09.2015 14:15 10,2 C 13,1 C 76 % 1013,1 hPa 0,0 mm 3,9 km/h (1 Bft) W 270 6,2 C 2,6 km/h (1 Bft)
23.09.2015 14:20 10,2 C 13,3 C 76 % 1013,1 hPa 0,0 mm 3,9 km/h (1 Bft) W-SW 247 6,2 C 7,8 km/h (2 Bft)
23.09.2015 14:25 10,3 C 13,4 C 76 % 1013,1 hPa 0,0 mm 2,3 km/h (1 Bft) SW 225 6,3 C 2,8 km/h (1 Bft)
23.09.2015 14:30 10,2 C 13,3 C 75 % 1013,1 hPa 0,0 mm 3,9 km/h (1 Bft) W-SW 247 6,0 C 10,1 km/h (2 Bft)
23.09.2015 14:35 10,3 C 13,4 C 74 % 1013,5 hPa 0,0 mm 4,7 km/h (1 Bft) W 270 5,9 C 8,3 km/h (2 Bft)
23.09.2015 14:40 10,4 C 13,4 C 74 % 1013,5 hPa 0,0 mm 5,7 km/h (1 Bft) NW 315 6,0 C 8,8 km/h (2 Bft)
23.09.2015 14:45 10,6 C 13,5 C 74 % 1013,5 hPa 0,0 mm 7,0 km/h (2 Bft) NW 315 6,2 C 8,5 km/h (2 Bft)
23.09.2015 14:50 10,7 C 13,8 C 73 % 1013,5 hPa 0,0 mm 7,3 km/h (2 Bft) NW 315 6,1 C 8,0 km/h (2 Bft)
23.09.2015 14:55 11,1 C 14,6 C 73 % 1013,5 hPa 0,0 mm 7,0 km/h (2 Bft) NW 315 6,4 C 12,7 km/h (3 Bft)
23.09.2015 15:00 11,1 C 15,3 C 71 % 1013,5 hPa 0,0 mm 8,5 km/h (2 Bft) W 270 6,0 C 8,5 km/h (2 Bft)
23.09.2015 15:05 10,8 C 14,2 C 71 % 1013,5 hPa 0,0 mm 7,5 km/h (2 Bft) S 180 5,8 C 2,6 km/h (1 Bft)
23.09.2015 15:10 10,8 C 13,4 C 72 % 1013,5 hPa 0,0 mm 5,2 km/h (1 Bft) W-NW 292 6,0 C 0,0 km/h (0 Bft)
23.09.2015 15:15 10,7 C 13,3 C 72 % 1013,9 hPa 0,0 mm 5,7 km/h (1 Bft) W 270 5,9 C 6,7 km/h (2 Bft)
23.09.2015 15:20 10,6 C 12,9 C 72 % 1013,9 hPa 0,0 mm 7,3 km/h (2 Bft) W-NW 292 5,8 C 11,4 km/h (2 Bft)
23.09.2015 15:25 10,5 C 12,6 C 71 % 1013,9 hPa 0,0 mm 8,0 km/h (2 Bft) W 270 5,5 C 9,6 km/h (2 Bft)
23.09.2015 15:30 10,4 C 12,5 C 71 % 1013,9 hPa 0,0 mm 6,5 km/h (2 Bft) W-NW 292 5,4 C 15,0 km/h (3 Bft)
23.09.2015 15:35 10,3 C 12,4 C 71 % 1013,7 hPa 0,0 mm 6,0 km/h (2 Bft) W-SW 247 5,3 C 8,8 km/h (2 Bft)
23.09.2015 15:40 10,4 C 12,2 C 71 % 1013,7 hPa 0,0 mm 8,5 km/h (2 Bft) NW 315 5,4 C 14,8 km/h (3 Bft)
23.09.2015 15:45 10,0 C 11,2 C 72 % 1013,7 hPa 0,0 mm 9,1 km/h (2 Bft) S 180 5,2 C 3,1 km/h (1 Bft)
23.09.2015 15:50 9,8 C 10,7 C 73 % 1013,7 hPa 0,0 mm 7,3 km/h (2 Bft) NW 315 5,2 C 0,0 km/h (0 Bft)
23.09.2015 15:55 10,1 C 11,5 C 73 % 1013,9 hPa 0,0 mm 6,2 km/h (2 Bft) W 270 5,5 C 16,1 km/h (3 Bft)
23.09.2015 16:00 10,6 C 13,2 C 73 % 1013,9 hPa 0,0 mm 7,5 km/h (2 Bft) NW 315 6,0 C 11,4 km/h (2 Bft)
23.09.2015 16:05 10,3 C 12,8 C 73 % 1013,9 hPa 0,0 mm 7,8 km/h (2 Bft) W-SW 247 5,7 C 7,0 km/h (2 Bft)
23.09.2015 16:10 10,7 C 13,8 C 73 % 1013,9 hPa 0,0 mm 7,5 km/h (2 Bft) W-SW 247 6,1 C 9,1 km/h (2 Bft)
23.09.2015 16:15 11,1 C 14,5 C 73 % 1013,6 hPa 0,0 mm 7,3 km/h (2 Bft) NW 315 6,4 C 6,0 km/h (2 Bft)
23.09.2015 16:20 10,8 C 14,6 C 73 % 1013,6 hPa 0,0 mm 5,4 km/h (1 Bft) NW 315 6,2 C 0,0 km/h (0 Bft)
23.09.2015 16:25 10,5 C 13,5 C 73 % 1013,6 hPa 0,0 mm 3,6 km/h (1 Bft) SW 225 5,9 C 4,7 km/h (1 Bft)
23.09.2015 16:30 10,1 C 12,3 C 73 % 1013,6 hPa 0,0 mm 1,3 km/h (1 Bft) SW 225 5,5 C 3,9 km/h (1 Bft)
23.09.2015 16:35 10,2 C 13,2 C 73 % 1013,8 hPa 0,0 mm 1,3 km/h (1 Bft) NW 315 5,6 C 4,4 km/h (1 Bft)
23.09.2015 16:40 10,1 C 13,9 C 73 % 1013,8 hPa 0,0 mm 2,3 km/h (1 Bft) NW 315 5,5 C 2,6 km/h (1 Bft)
23.09.2015 16:45 9,9 C 13,0 C 73 % 1013,8 hPa 0,0 mm 2,6 km/h (1 Bft) NW 315 5,3 C 2,8 km/h (1 Bft)
23.09.2015 16:50 9,9 C 11,9 C 73 % 1013,8 hPa 0,0 mm 2,3 km/h (1 Bft) W-NW 292 5,3 C 9,1 km/h (2 Bft)
23.09.2015 16:55 9,8 C 11,4 C 74 % 1013,8 hPa 0,0 mm 2,3 km/h (1 Bft) W-SW 247 5,4 C 2,8 km/h (1 Bft)
23.09.2015 17:00 9,8 C 11,1 C 74 % 1013,8 hPa 0,0 mm 1,6 km/h (1 Bft) NW 315 5,4 C 0,0 km/h (0 Bft)
23.09.2015 17:05 9,9 C 11,1 C 74 % 1013,8 hPa 0,0 mm 1,0 km/h (0 Bft) W 270 5,5 C 0,0 km/h (0 Bft)
23.09.2015 17:10 10,0 C 11,2 C 74 % 1013,8 hPa 0,0 mm 0,5 km/h (0 Bft) NW 315 5,6 C 0,0 km/h (0 Bft)
23.09.2015 17:15 10,0 C 11,2 C 74 % 1013,9 hPa 0,0 mm 0,3 km/h (0 Bft) SW 225 5,6 C 0,0 km/h (0 Bft)
23.09.2015 17:20 9,8 C 10,8 C 74 % 1013,9 hPa 0,0 mm 1,0 km/h (0 Bft) W-SW 247 5,4 C 0,0 km/h (0 Bft)
23.09.2015 17:25 9,7 C 10,6 C 74 % 1013,9 hPa 0,0 mm 1,6 km/h (1 Bft) NW 315 5,3 C 3,1 km/h (1 Bft)
23.09.2015 17:30 9,7 C 10,4 C 75 % 1013,9 hPa 0,0 mm 1,0 km/h (0 Bft) NW 315 5,5 C 0,0 km/h (0 Bft)
23.09.2015 17:35 9,6 C 10,3 C 75 % 1014,2 hPa 0,0 mm 0,5 km/h (0 Bft) NW 315 5,4 C 0,0 km/h (0 Bft)
23.09.2015 17:40 9,6 C 10,1 C 75 % 1014,2 hPa 0,0 mm 1,6 km/h (1 Bft) S-SW 202 5,4 C 2,8 km/h (1 Bft)
23.09.2015 17:45 9,6 C 10,0 C 75 % 1014,2 hPa 0,0 mm 2,3 km/h (1 Bft) W-SW 247 5,4 C 3,6 km/h (1 Bft)
23.09.2015 17:50 9,5 C 9,9 C 75 % 1014,2 hPa 0,0 mm 2,3 km/h (1 Bft) W-SW 247 5,3 C 0,0 km/h (0 Bft)
23.09.2015 17:55 9,5 C 9,8 C 75 % 1014,5 hPa 0,0 mm 2,3 km/h (1 Bft) NW 315 5,3 C 0,0 km/h (0 Bft)
23.09.2015 18:00 9,4 C 9,8 C 75 % 1014,5 hPa 0,0 mm 2,6 km/h (1 Bft) NW 315 5,2 C 6,0 km/h (2 Bft)
23.09.2015 18:05 9,4 C 9,6 C 75 % 1014,5 hPa 0,0 mm 3,4 km/h (1 Bft) W 270 5,2 C 5,4 km/h (1 Bft)
23.09.2015 18:10 9,2 C 9,3 C 75 % 1014,5 hPa 0,0 mm 3,6 km/h (1 Bft) SW 225 5,0 C 6,5 km/h (2 Bft)
23.09.2015 18:15 9,2 C 9,2 C 75 % 1014,4 hPa 0,0 mm 3,6 km/h (1 Bft) NW 315 5,0 C 9,8 km/h (2 Bft)
23.09.2015 18:20 9,1 C 9,0 C 75 % 1014,4 hPa 0,0 mm 4,4 km/h (1 Bft) S-SW 202 4,9 C 6,5 km/h (2 Bft)
23.09.2015 18:25 9,0 C 8,9 C 75 % 1014,4 hPa 0,0 mm 4,7 km/h (1 Bft) W-NW 292 4,8 C 0,0 km/h (0 Bft)
23.09.2015 18:30 9,0 C 8,8 C 76 % 1014,4 hPa 0,0 mm 4,1 km/h (1 Bft) W-NW 292 5,0 C 13,5 km/h (3 Bft)
23.09.2015 18:35 9,0 C 8,9 C 76 % 1014,8 hPa 0,0 mm 4,1 km/h (1 Bft) W-SW 247 5,0 C 5,7 km/h (1 Bft)
23.09.2015 18:40 8,9 C 8,8 C 76 % 1014,8 hPa 0,0 mm 5,2 km/h (1 Bft) NW 315 4,9 C 5,2 km/h (1 Bft)
23.09.2015 18:45 8,9 C 8,8 C 76 % 1014,8 hPa 0,0 mm 4,7 km/h (1 Bft) W-SW 247 4,9 C 9,8 km/h (2 Bft)
23.09.2015 18:50 8,8 C 8,9 C 77 % 1014,8 hPa 0,0 mm 2,3 km/h (1 Bft) SW 225 5,0 C 0,0 km/h (0 Bft)
23.09.2015 18:55 8,8 C 8,8 C 77 % 1014,9 hPa 0,0 mm 1,0 km/h (0 Bft) W-NW 292 5,0 C 0,0 km/h (0 Bft)
23.09.2015 19:00 8,7 C 8,7 C 77 % 1014,9 hPa 0,0 mm 0,8 km/h (0 Bft) S-SW 202 4,9 C 3,1 km/h (1 Bft)
23.09.2015 19:05 8,6 C 8,6 C 77 % 1014,9 hPa 0,0 mm 1,0 km/h (0 Bft) NW 315 4,8 C 0,0 km/h (0 Bft)
23.09.2015 19:10 8,4 C 8,4 C 77 % 1014,9 hPa 0,0 mm 0,8 km/h (0 Bft) NW 315 4,6 C 0,0 km/h (0 Bft)
23.09.2015 19:15 8,3 C 8,2 C 78 % 1014,9 hPa 0,0 mm 0,5 km/h (0 Bft) S-SW 202 4,7 C 3,9 km/h (1 Bft)
23.09.2015 19:20 8,1 C 8,0 C 78 % 1014,9 hPa 0,0 mm 1,6 km/h (1 Bft) W-SW 247 4,5 C 0,0 km/h (0 Bft)
23.09.2015 19:25 8,0 C 7,9 C 78 % 1014,9 hPa 0,0 mm 1,6 km/h (1 Bft) W-SW 247 4,4 C 0,0 km/h (0 Bft)
23.09.2015 19:30 7,8 C 7,6 C 79 % 1014,9 hPa 0,0 mm 0,5 km/h (0 Bft) SW 225 4,4 C 4,1 km/h (1 Bft)
23.09.2015 19:35 7,6 C 7,4 C 79 % 1015,1 hPa 0,0 mm 0,8 km/h (0 Bft) W 270 4,2 C 0,0 km/h (0 Bft)
23.09.2015 19:37 7,4 C 7,2 C 79 % 1015,1 hPa 0,0 mm 0,8 km/h (0 Bft) S-SW 202 4,0 C 0,0 km/h (0 Bft)
23.09.2015 19:40 7,4 C 7,2 C 79 % 1015,1 hPa 0,0 mm 0,8 km/h (0 Bft) S-SW 202 4,0 C 0,0 km/h (0 Bft)
23.09.2015 19:45 7,4 C 7,2 C 79 % 1015,1 hPa 0,0 mm 0,3 km/h (0 Bft) SW 225 4,0 C 3,9 km/h (1 Bft)
23.09.2015 19:50 7,5 C 7,3 C 80 % 1015,1 hPa 0,0 mm 0,5 km/h (0 Bft) S-SW 202 4,3 C 0,0 km/h (0 Bft)
23.09.2015 19:55 7,5 C 7,3 C 80 % 1015,6 hPa 0,0 mm 0,5 km/h (0 Bft) S-SW 202 4,3 C 0,0 km/h (0 Bft)
23.09.2015 20:00 7,4 C 7,2 C 80 % 1015,6 hPa 0,0 mm 0,0 km/h (0 Bft) W 270 4,2 C 0,0 km/h (0 Bft)
23.09.2015 20:05 7,3 C 7,1 C 80 % 1015,6 hPa 0,0 mm 0,3 km/h (0 Bft) SW 225 4,1 C 2,8 km/h (1 Bft)
23.09.2015 20:10 7,1 C 6,9 C 80 % 1015,6 hPa 0,0 mm 0,3 km/h (0 Bft) NW 315 3,9 C 3,1 km/h (1 Bft)
23.09.2015 20:15 7,0 C 6,8 C 80 % 1015,7 hPa 0,0 mm 0,3 km/h (0 Bft) S-SW 202 3,8 C 0,0 km/h (0 Bft)
23.09.2015 20:20 7,1 C 6,8 C 81 % 1015,7 hPa 0,0 mm 0,5 km/h (0 Bft) W-SW 247 4,1 C 4,4 km/h (1 Bft)
23.09.2015 20:25 7,2 C 6,9 C 82 % 1015,7 hPa 0,0 mm 1,0 km/h (0 Bft) NW 315 4,3 C 0,0 km/h (0 Bft)
23.09.2015 20:30 7,3 C 7,1 C 82 % 1015,7 hPa 0,0 mm 1,0 km/h (0 Bft) SW 225 4,4 C 3,6 km/h (1 Bft)
23.09.2015 20:35 7,3 C 7,1 C 82 % 1015,9 hPa 0,0 mm 1,0 km/h (0 Bft) W-SW 247 4,4 C 5,4 km/h (1 Bft)
23.09.2015 20:40 7,4 C 7,2 C 82 % 1015,9 hPa 0,0 mm 2,8 km/h (1 Bft) N-NW 337 4,5 C 5,2 km/h (1 Bft)
23.09.2015 20:45 7,4 C 7,3 C 82 % 1015,9 hPa 0,0 mm 2,8 km/h (1 Bft) SW 225 4,5 C 0,0 km/h (0 Bft)
23.09.2015 20:50 7,5 C 7,3 C 82 % 1015,9 hPa 0,0 mm 1,8 km/h (1 Bft) W-SW 247 4,6 C 2,8 km/h (1 Bft)
23.09.2015 20:55 7,6 C 7,4 C 82 % 1016,3 hPa 0,0 mm 2,3 km/h (1 Bft) SW 225 4,7 C 4,7 km/h (1 Bft)
23.09.2015 21:00 7,6 C 7,5 C 82 % 1016,3 hPa 0,0 mm 3,4 km/h (1 Bft) SW 225 4,7 C 0,0 km/h (0 Bft)
23.09.2015 21:05 7,7 C 7,5 C 82 % 1016,3 hPa 0,0 mm 2,6 km/h (1 Bft) SW 225 4,8 C 8,0 km/h (2 Bft)
23.09.2015 21:10 7,6 C 7,5 C 82 % 1016,3 hPa 0,0 mm 1,3 km/h (1 Bft) S 180 4,7 C 0,0 km/h (0 Bft)
23.09.2015 21:15 7,6 C 7,5 C 82 % 1016,0 hPa 0,0 mm 1,0 km/h (0 Bft) W-NW 292 4,7 C 0,0 km/h (0 Bft)
23.09.2015 21:20 7,7 C 7,6 C 82 % 1016,0 hPa 0,0 mm 1,3 km/h (1 Bft) S-SW 202 4,8 C 0,0 km/h (0 Bft)
23.09.2015 21:25 7,6 C 7,5 C 82 % 1016,0 hPa 0,0 mm 1,3 km/h (1 Bft) S 180 4,7 C 4,4 km/h (1 Bft)
23.09.2015 21:30 7,6 C 7,5 C 82 % 1016,0 hPa 0,0 mm 1,6 km/h (1 Bft) W 270 4,7 C 3,9 km/h (1 Bft)
23.09.2015 21:35 7,6 C 7,5 C 82 % 1016,6 hPa 0,0 mm 2,8 km/h (1 Bft) SW 225 4,7 C 6,5 km/h (2 Bft)
23.09.2015 21:40 7,7 C 7,6 C 82 % 1016,6 hPa 0,0 mm 2,8 km/h (1 Bft) NO 45 4,8 C 0,0 km/h (0 Bft)
23.09.2015 21:45 7,7 C 7,6 C 82 % 1016,6 hPa 0,0 mm 2,8 km/h (1 Bft) W-SW 247 4,8 C 4,4 km/h (1 Bft)
23.09.2015 21:50 7,7 C 7,6 C 82 % 1016,6 hPa 0,0 mm 3,4 km/h (1 Bft) SW 225 4,8 C 5,4 km/h (1 Bft)
23.09.2015 21:55 7,8 C 7,7 C 82 % 1016,7 hPa 0,0 mm 4,4 km/h (1 Bft) W 270 4,9 C 6,5 km/h (2 Bft)
23.09.2015 22:00 7,8 C 7,7 C 81 % 1016,7 hPa 0,0 mm 6,0 km/h (2 Bft) SW 225 4,7 C 9,6 km/h (2 Bft)
23.09.2015 22:05 7,9 C 7,7 C 81 % 1016,7 hPa 0,0 mm 7,3 km/h (2 Bft) W-SW 247 4,8 C 10,4 km/h (2 Bft)
23.09.2015 22:10 7,8 C 7,6 C 81 % 1016,7 hPa 0,0 mm 8,0 km/h (2 Bft) W-SW 247 4,7 C 11,9 km/h (2 Bft)
23.09.2015 22:15 7,8 C 7,5 C 81 % 1017,0 hPa 0,0 mm 7,0 km/h (2 Bft) S 180 4,7 C 6,2 km/h (2 Bft)
23.09.2015 22:20 7,6 C 7,5 C 81 % 1017,0 hPa 0,0 mm 4,1 km/h (1 Bft) S 180 4,6 C 0,0 km/h (0 Bft)
23.09.2015 22:25 7,6 C 7,5 C 81 % 1017,0 hPa 0,0 mm 1,8 km/h (1 Bft) SW 225 4,6 C 4,4 km/h (1 Bft)
23.09.2015 22:30 7,6 C 7,4 C 81 % 1017,0 hPa 0,0 mm 4,1 km/h (1 Bft) W 270 4,6 C 6,2 km/h (2 Bft)
23.09.2015 22:35 7,6 C 7,4 C 82 % 1017,1 hPa 0,0 mm 6,0 km/h (2 Bft) W-SW 247 4,7 C 10,4 km/h (2 Bft)
23.09.2015 22:40 7,6 C 7,4 C 82 % 1017,1 hPa 0,0 mm 6,7 km/h (2 Bft) S 180 4,7 C 5,7 km/h (1 Bft)
23.09.2015 22:45 7,6 C 7,5 C 82 % 1017,1 hPa 0,0 mm 5,4 km/h (1 Bft) SW 225 4,7 C 7,0 km/h (2 Bft)
23.09.2015 22:50 7,6 C 7,5 C 82 % 1017,1 hPa 0,0 mm 3,6 km/h (1 Bft) SW 225 4,7 C 7,5 km/h (2 Bft)
23.09.2015 22:55 7,6 C 7,5 C 82 % 1017,3 hPa 0,0 mm 4,1 km/h (1 Bft) W-SW 247 4,7 C 3,4 km/h (1 Bft)
23.09.2015 23:00 7,6 C 7,5 C 82 % 1017,3 hPa 0,0 mm 3,4 km/h (1 Bft) SW 225 4,7 C 5,4 km/h (1 Bft)
23.09.2015 23:05 7,6 C 7,5 C 82 % 1017,3 hPa 0,0 mm 2,3 km/h (1 Bft) S-SW 202 4,7 C 0,0 km/h (0 Bft)
23.09.2015 23:10 7,6 C 7,5 C 82 % 1017,3 hPa 0,0 mm 3,4 km/h (1 Bft) S 180 4,7 C 6,2 km/h (2 Bft)
23.09.2015 23:15 7,6 C 7,5 C 82 % 1017,3 hPa 0,0 mm 3,6 km/h (1 Bft) SW 225 4,7 C 3,9 km/h (1 Bft)
23.09.2015 23:20 7,5 C 7,4 C 82 % 1017,3 hPa 0,0 mm 2,1 km/h (1 Bft) S 180 4,6 C 4,9 km/h (1 Bft)
23.09.2015 23:25 7,5 C 7,4 C 83 % 1017,3 hPa 0,0 mm 0,8 km/h (0 Bft) S-SO 157 4,8 C 0,0 km/h (0 Bft)
23.09.2015 23:30 7,4 C 7,3 C 84 % 1017,3 hPa 0,0 mm 1,6 km/h (1 Bft) S-SW 202 4,9 C 3,6 km/h (1 Bft)
23.09.2015 23:35 7,5 C 7,4 C 84 % 1017,3 hPa 0,0 mm 1,8 km/h (1 Bft) W-SW 247 5,0 C 3,6 km/h (1 Bft)
23.09.2015 23:40 7,4 C 7,3 C 84 % 1017,3 hPa 0,0 mm 1,6 km/h (1 Bft) SW 225 4,9 C 3,9 km/h (1 Bft)
23.09.2015 23:45 7,5 C 7,4 C 84 % 1017,3 hPa 0,0 mm 2,1 km/h (1 Bft) SW 225 5,0 C 6,2 km/h (2 Bft)
23.09.2015 23:50 7,4 C 7,3 C 84 % 1017,3 hPa 0,0 mm 2,1 km/h (1 Bft) S 180 4,9 C 0,0 km/h (0 Bft)
23.09.2015 23:55 7,3 C 7,2 C 84 % 1017,7 hPa 0,0 mm 0,8 km/h (0 Bft) O-SO 112 4,8 C 0,0 km/h (0 Bft)
_ Min-Zeit 07:40 07:40 15:40 01:30 - 20:00 - - 20:15 23:55
Minimum _ 6,0 C 5,9 C 71 % 1006,8 hPa - 0,0 km/h (0 Bft) - - 3,8 C 0,0 km/h (0 Bft)
_ Max-Zeit 16:15 15:00 07:55 23:55 10:10 03:25 - - 01:55 03:20
Maximum _ 11,1 C 15,3 C 90 % 1017,7 hPa 0,7 mm 11,4 km/h
W-NW (2 Bft)
- - 8,5 C 39,6 km/h
NW (6 Bft)
Durchschnitt _ 8,2 C 8,7 C 83 % 1012,0 hPa #15,1 mm 2,6 km/h (1 Bft) W-SW - 5,5 C 3,7 km/h (1 Bft)